TimePDT,TemperatureF,Dew PointF,Humidity,Sea Level PressureIn,VisibilityMPH,Wind Direction,Wind SpeedMPH,Gust SpeedMPH,PrecipitationIn,Events,Conditions,WindDirDegrees,DateUTC
12:53 AM,53.1,45.0,74,30.09,10.0,North,-9999.0,-,N/A,,Partly Cloudy,0,2013-09-27 07:53:00
1:53 AM,51.1,44.1,77,30.08,10.0,North,-9999.0,-,N/A,,Mostly Cloudy,0,2013-09-27 08:53:00
2:53 AM,50.0,45.0,83,30.06,10.0,North,-9999.0,-,N/A,,Overcast,0,2013-09-27 09:53:00
3:53 AM,51.1,46.0,83,30.05,10.0,North,-9999.0,-,N/A,,Overcast,0,2013-09-27 10:53:00
4:53 AM,50.0,46.9,89,30.03,10.0,North,-9999.0,-,0.00,Rain,Light Rain,0,2013-09-27 11:53:00
5:53 AM,50.0,48.0,93,29.99,10.0,North,-9999.0,-,0.04,Rain,Light Rain,0,2013-09-27 12:53:00
6:53 AM,50.0,48.9,96,30.01,7.0,Calm,Calm,-,0.06,Rain,Light Rain,0,2013-09-27 13:53:00
7:53 AM,51.1,50.0,96,29.98,6.0,Calm,Calm,-,0.03,Rain,Light Rain,0,2013-09-27 14:53:00
8:01 AM,51.1,50.0,96,29.97,9.0,Calm,Calm,-,0.00,Rain,Light Rain,0,2013-09-27 15:01:00
8:29 AM,51.1,48.9,92,29.98,3.0,Calm,Calm,-,0.00,,Overcast,0,2013-09-27 15:29:00
8:53 AM,51.1,50.0,96,29.97,10.0,Calm,Calm,-,0.00,,Overcast,0,2013-09-27 15:53:00
9:02 AM,51.1,50.0,96,29.96,10.0,Calm,Calm,-,N/A,,Overcast,0,2013-09-27 16:02:00
9:39 AM,52.0,50.0,93,29.95,9.0,North,3.5,-,N/A,,Overcast,10,2013-09-27 16:39:00
9:53 AM,51.1,50.0,96,29.96,6.0,NNE,3.5,-,N/A,,Overcast,20,2013-09-27 16:53:00
10:14 AM,51.1,50.0,96,29.95,10.0,Variable,3.5,-,N/A,,Overcast,0,2013-09-27 17:14:00
10:53 AM,53.1,48.9,86,29.94,10.0,Calm,Calm,-,N/A,,Overcast,0,2013-09-27 17:53:00
11:53 AM,55.9,51.1,84,29.93,10.0,WNW,3.5,-,N/A,,Scattered Clouds,290,2013-09-27 18:53:00
11:57 AM,55.9,50.0,80,29.93,10.0,Calm,Calm,-,N/A,,Mostly Cloudy,0,2013-09-27 18:57:00
12:14 PM,53.1,51.1,93,29.92,10.0,Variable,4.6,-,N/A,,Mostly Cloudy,0,2013-09-27 19:14:00
12:27 PM,54.0,51.1,90,29.93,10.0,North,5.8,-,N/A,,Mostly Cloudy,360,2013-09-27 19:27:00
12:34 PM,54.0,50.0,86,29.93,10.0,North,4.6,-,N/A,,Mostly Cloudy,360,2013-09-27 19:34:00
12:44 PM,53.1,50.0,89,29.93,10.0,Variable,4.6,-,N/A,,Overcast,0,2013-09-27 19:44:00
12:53 PM,54.0,51.1,90,29.93,10.0,NW,4.6,-,N/A,,Overcast,320,2013-09-27 19:53:00
1:06 PM,54.0,51.1,90,29.93,10.0,North,4.6,-,N/A,,Overcast,10,2013-09-27 20:06:00
1:44 PM,54.0,50.0,86,29.92,10.0,NNW,4.6,-,N/A,,Overcast,330,2013-09-27 20:44:00
1:53 PM,54.0,50.0,86,29.93,10.0,Calm,Calm,-,N/A,,Overcast,0,2013-09-27 20:53:00
2:15 PM,54.0,50.0,86,29.91,10.0,Calm,Calm,-,N/A,,Overcast,0,2013-09-27 21:15:00
2:25 PM,54.0,50.0,86,29.91,10.0,Calm,Calm,-,N/A,,Overcast,0,2013-09-27 21:25:00
2:53 PM,55.9,50.0,80,29.91,10.0,Calm,Calm,-,N/A,,Overcast,0,2013-09-27 21:53:00
3:53 PM,55.9,48.9,77,29.90,10.0,NE,3.5,-,N/A,,Mostly Cloudy,50,2013-09-27 22:53:00
4:53 PM,55.9,52.0,87,29.89,10.0,East,3.5,-,0.00,,Overcast,100,2013-09-27 23:53:00
5:53 PM,55.9,52.0,87,29.90,10.0,SE,4.6,-,N/A,,Mostly Cloudy,140,2013-09-28 00:53:00
6:02 PM,55.9,52.0,87,29.89,10.0,Calm,Calm,-,N/A,,Mostly Cloudy,0,2013-09-28 01:02:00
6:32 PM,55.9,52.0,87,29.89,10.0,Calm,Calm,-,N/A,,Overcast,0,2013-09-28 01:32:00
6:53 PM,55.9,52.0,87,29.88,10.0,Calm,Calm,-,N/A,,Mostly Cloudy,0,2013-09-28 01:53:00
7:53 PM,53.1,51.1,93,29.88,10.0,SW,3.5,-,N/A,,Partly Cloudy,220,2013-09-28 02:53:00
8:53 PM,52.0,51.1,97,29.87,10.0,West,4.6,-,N/A,,Partly Cloudy,280,2013-09-28 03:53:00
9:53 PM,52.0,51.1,97,29.86,10.0,Calm,Calm,-,N/A,,Mostly Cloudy,0,2013-09-28 04:53:00
10:53 PM,51.1,48.9,92,29.84,10.0,South,4.6,-,N/A,,Partly Cloudy,180,2013-09-28 05:53:00
11:53 PM,51.1,48.9,92,29.81,10.0,South,3.5,-,N/A,,Partly Cloudy,170,2013-09-28 06:53:00